Tracking 17855 objects as of 25-September-2016
HD Live streaming from Space Station
objects crossing your sky now

TITAN 3C TRANSTAGE R/B

Track TITAN 3C TRANSTAGE R/B now!


NORAD ID: 10942
Int'l Code: 1978-058B
Perigee: 29,642.7 km
Apogee: 42,312.7 km
Inclination: 7.1 °
Period: 1,445.5 minutes
Semi major axis: 42348 km
RCS: Unknown
Launch date: June 10, 1978
Source: United States (US)
Launch site: AIR FORCE EASTERN TEST RANGE (AFETR)

Note: This is a ROCKET BODY
Your satellite tracking list
Your tracking list is empty





NASA's NSSDC Master Catalog

Two Line Element Set (TLE):
1 10942U 78058B   16246.43562041 0.00000000  00000-0  00000-0 0    01
2 10942   7.1377  29.4984 1495908  54.7822 318.3546  0.99619085    00
Source of the keplerian elements: McCants

N2YO: 499